Вернуться в каталог

STARLINK-5912

АктивенСвязьVLEO
NORAD 56020·PAYLOAD·🇺🇸 United States

Запущен Mar 24, 2023 с Cape Canaveral Space Force Station

Loading…

Ближайшие Пролёты (ближайшие 24 часа)

TLE

СвежийSource: CelesTrak SupGP

Эпоха: Sep 14, 2026, 21:14 UTC

1 56020C 23042AL  26257.88520833  .00040942  00000+0  14835-2 0  2571
2 56020  43.0011  56.9661 0001697 266.1263 250.9275 15.27545082    16

Отслеживайте STARLINK-5912 в реальном времени с AllMySat

Download on the App Store